When you browse on this site, cookies collect data to enhance your experience and personalize the content and advertising you see.
Visit our Privacy Policy to learn more. By continuing to use the site, you agree to this use of cookies and data.
  • In Hungary
  • List of Countries
  • For 7 days
  • Water Temperature
  • Weather Map
  • News
  • Weather Widgets
  • user-avatar
    Login

    Hourly Weather Panfilovo

    Today, 22 August, Thursday

    Time Temperature Precipitation Wind Pressure Humidity
    00:00 +19°C° 0.1 mm 3 mps 751 mmHg 96%
    01:00 +18°C° 0.1 mm 4 mps 751 mmHg 96%
    02:00 +17°C° 0.1 mm 4 mps 752 mmHg 96%
    03:00 +17°C° 0 mm 4 mps 752 mmHg 95%
    04:00 +15°C° 0 mm 4 mps 753 mmHg 95%
    05:00 +14°C° 0 mm 4 mps 753 mmHg 94%
    06:00 +14°C° 0 mm 4 mps 754 mmHg 92%
    07:00 +16°C° 0 mm 3 mps 755 mmHg 90%
    08:00 +16°C° 0 mm 3 mps 755 mmHg 88%
    09:00 +17°C° 0 mm 3 mps 756 mmHg 81%
    10:00 +19°C° 0 mm 3 mps 756 mmHg 74%
    11:00 +20°C° 0 mm 3 mps 756 mmHg 67%
    12:00 +21°C° 0 mm 3 mps 756 mmHg 63%
    13:00 +21°C° 0 mm 3 mps 756 mmHg 59%
    14:00 +22°C° 0 mm 3 mps 757 mmHg 55%
    15:00 +22°C° 0 mm 3 mps 757 mmHg 58%
    16:00 +23°C° 0 mm 2 mps 756 mmHg 61%
    17:00 +21°C° 0 mm 2 mps 756 mmHg 65%
    18:00 +20°C° 0 mm 1 mps 756 mmHg 70%
    19:00 +18°C° 0 mm 1 mps 757 mmHg 75%
    20:00 +15°C° 0 mm 1 mps 757 mmHg 81%
    21:00 +15°C° 0 mm 1 mps 757 mmHg 83%
    22:00 +14°C° 0 mm 1 mps 757 mmHg 85%
    23:00 +13°C° 0 mm 1 mps 757 mmHg 87%

    Tomorrow, 23 August, Friday

    Time Temperature Precipitation Wind Pressure Humidity
    00:00 +13°C° 0 mm 1 mps 758 mmHg 89%
    01:00 +13°C° 0 mm 1 mps 758 mmHg 90%
    02:00 +12°C° 0 mm 1 mps 758 mmHg 92%
    03:00 +12°C° 0 mm 1 mps 758 mmHg 93%
    04:00 +11°C° 0 mm 0 mps 758 mmHg 93%
    05:00 +11°C° 0 mm 0 mps 758 mmHg 94%
    06:00 +13°C° 0 mm 0 mps 758 mmHg 88%
    07:00 +15°C° 0 mm 0 mps 758 mmHg 81%
    08:00 +17°C° 0 mm 0 mps 759 mmHg 75%
    09:00 +20°C° 0 mm 1 mps 759 mmHg 70%
    10:00 +21°C° 0 mm 1 mps 759 mmHg 64%
    11:00 +21°C° 0 mm 2 mps 759 mmHg 59%
    12:00 +23°C° 0 mm 1 mps 758 mmHg 56%
    13:00 +23°C° 0 mm 1 mps 758 mmHg 53%
    14:00 +24°C° 0 mm 1 mps 758 mmHg 51%
    15:00 +23°C° 0 mm 1 mps 758 mmHg 55%
    16:00 +23°C° 0 mm 1 mps 758 mmHg 60%
    17:00 +23°C° 0 mm 1 mps 757 mmHg 65%
    18:00 +21°C° 0 mm 1 mps 757 mmHg 70%
    19:00 +18°C° 0 mm 1 mps 757 mmHg 75%
    20:00 +15°C° 0 mm 1 mps 757 mmHg 80%
    21:00 +15°C° 0 mm 1 mps 757 mmHg 82%
    22:00 +14°C° 0 mm 1 mps 758 mmHg 84%
    23:00 +14°C° 0 mm 1 mps 758 mmHg 87%

    Day after tomorrow, 24 August, Saturday

    Time Temperature Precipitation Wind Pressure Humidity
    00:00 +13°C° 0 mm 1 mps 758 mmHg 88%
    01:00 +13°C° 0 mm 1 mps 758 mmHg 90%
    02:00 +13°C° 0 mm 1 mps 758 mmHg 92%
    03:00 +13°C° 0 mm 1 mps 757 mmHg 93%
    04:00 +13°C° 0 mm 1 mps 757 mmHg 93%
    05:00 +12°C° 0 mm 1 mps 757 mmHg 94%
    06:00 +14°C° 0 mm 1 mps 757 mmHg 88%
    07:00 +16°C° 0 mm 1 mps 757 mmHg 82%
    08:00 +18°C° 0 mm 2 mps 757 mmHg 77%
    09:00 +19°C° 0 mm 2 mps 757 mmHg 72%
    10:00 +20°C° 0 mm 2 mps 757 mmHg 67%
    11:00 +21°C° 0 mm 2 mps 757 mmHg 63%
    12:00 +23°C° 0 mm 2 mps 757 mmHg 61%
    13:00 +24°C° 0 mm 3 mps 757 mmHg 59%
    14:00 +24°C° 0 mm 3 mps 756 mmHg 58%
    15:00 +24°C° 0 mm 3 mps 756 mmHg 62%
    16:00 +23°C° 0 mm 2 mps 756 mmHg 66%
    17:00 +23°C° 0 mm 2 mps 755 mmHg 70%
    18:00 +20°C° 0 mm 2 mps 755 mmHg 76%
    19:00 +18°C° 0 mm 2 mps 755 mmHg 82%
    20:00 +16°C° 0 mm 2 mps 755 mmHg 87%
    21:00 +16°C° 0 mm 1 mps 755 mmHg 89%
    22:00 +15°C° 0 mm 1 mps 755 mmHg 90%
    23:00 +15°C° 0 mm 1 mps 755 mmHg 91%

    25 August, Sunday

    Time Temperature Precipitation Wind Pressure Humidity
    00:00 +14°C° 0 mm 1 mps 755 mmHg 92%
    01:00 +14°C° 0 mm 1 mps 755 mmHg 93%
    02:00 +14°C° 0 mm 1 mps 755 mmHg 94%
    03:00 +14°C° 0 mm 1 mps 755 mmHg 94%
    04:00 +13°C° 0 mm 1 mps 755 mmHg 95%
    05:00 +13°C° 0 mm 1 mps 755 mmHg 95%
    06:00 +15°C° 0 mm 1 mps 755 mmHg 91%
    07:00 +16°C° 0 mm 2 mps 755 mmHg 87%
    08:00 +18°C° 0 mm 2 mps 755 mmHg 82%
    09:00 +19°C° 0 mm 2 mps 755 mmHg 78%
    10:00 +20°C° 0 mm 2 mps 755 mmHg 75%
    11:00 +21°C° 0 mm 2 mps 755 mmHg 71%
    12:00 +23°C° 0.1 mm 2 mps 755 mmHg 67%
    13:00 +24°C° 0.1 mm 3 mps 755 mmHg 64%
    14:00 +24°C° 0.1 mm 3 mps 755 mmHg 60%
    15:00 +22°C° 0 mm 3 mps 755 mmHg 62%
    16:00 +22°C° 0 mm 3 mps 756 mmHg 64%
    17:00 +21°C° 0 mm 2 mps 756 mmHg 65%
    18:00 +19°C° 0 mm 2 mps 756 mmHg 72%
    19:00 +17°C° 0 mm 2 mps 756 mmHg 79%
    20:00 +15°C° 0 mm 2 mps 756 mmHg 86%
    21:00 +14°C° 0 mm 2 mps 757 mmHg 88%
    22:00 +14°C° 0 mm 2 mps 757 mmHg 91%
    23:00 +13°C° 0 mm 2 mps 758 mmHg 93%

    26 August, Monday

    Time Temperature Precipitation Wind Pressure Humidity
    00:00 +13°C° 0 mm 2 mps 758 mmHg 94%
    01:00 +12°C° 0 mm 2 mps 758 mmHg 95%
    02:00 +12°C° 0 mm 1 mps 758 mmHg 96%
    03:00 +11°C° 0 mm 1 mps 758 mmHg 96%
    04:00 +11°C° 0 mm 1 mps 758 mmHg 96%
    05:00 +11°C° 0 mm 1 mps 758 mmHg 96%
    06:00 +12°C° 0 mm 1 mps 759 mmHg 90%
    07:00 +14°C° 0 mm 1 mps 759 mmHg 84%
    08:00 +16°C° 0 mm 1 mps 759 mmHg 78%
    09:00 +19°C° 0 mm 1 mps 759 mmHg 72%
    10:00 +20°C° 0 mm 1 mps 759 mmHg 65%
    11:00 +22°C° 0 mm 1 mps 759 mmHg 59%
    12:00 +23°C° 0 mm 2 mps 759 mmHg 57%
    13:00 +23°C° 0 mm 2 mps 759 mmHg 55%
    14:00 +23°C° 0 mm 2 mps 758 mmHg 53%
    15:00 +23°C° 0 mm 2 mps 758 mmHg 58%
    16:00 +23°C° 0 mm 1 mps 758 mmHg 63%
    17:00 +22°C° 0 mm 1 mps 757 mmHg 67%
    18:00 +20°C° 0 mm 1 mps 757 mmHg 74%
    19:00 +18°C° 0 mm 1 mps 757 mmHg 80%
    20:00 +15°C° 0 mm 1 mps 757 mmHg 86%
    21:00 +15°C° 0 mm 1 mps 757 mmHg 87%
    22:00 +14°C° 0 mm 1 mps 757 mmHg 89%
    23:00 +14°C° 0 mm 1 mps 757 mmHg 91%

    27 August, Tuesday

    Time Temperature Precipitation Wind Pressure Humidity
    00:00 +13°C° 0 mm 1 mps 757 mmHg 92%
    01:00 +13°C° 0 mm 1 mps 757 mmHg 93%
    02:00 +13°C° 0 mm 2 mps 757 mmHg 94%
    03:00 +13°C° 0 mm 1 mps 757 mmHg 94%
    04:00 +12°C° 0 mm 1 mps 757 mmHg 95%
    05:00 +12°C° 0 mm 1 mps 756 mmHg 95%
    06:00 +14°C° 0 mm 1 mps 757 mmHg 88%
    07:00 +16°C° 0 mm 1 mps 757 mmHg 82%
    08:00 +19°C° 0 mm 1 mps 757 mmHg 75%
    09:00 +21°C° 0 mm 1 mps 756 mmHg 71%
    10:00 +21°C° 0 mm 2 mps 756 mmHg 67%
    11:00 +24°C° 0 mm 2 mps 756 mmHg 62%
    12:00 +24°C° 0 mm 2 mps 756 mmHg 61%
    13:00 +25°C° 0 mm 2 mps 756 mmHg 61%
    14:00 +25°C° 0 mm 2 mps 755 mmHg 60%
    15:00 +25°C° 0 mm 2 mps 755 mmHg 64%
    16:00 +25°C° 0 mm 2 mps 755 mmHg 68%
    17:00 +24°C° 0 mm 1 mps 755 mmHg 72%
    18:00 +23°C° 0 mm 1 mps 754 mmHg 78%
    19:00 +21°C° 0 mm 1 mps 754 mmHg 84%
    20:00 +19°C° 0 mm 1 mps 754 mmHg 90%
    21:00 +19°C° 0 mm 1 mps 754 mmHg 91%
    22:00 +18°C° 0 mm 1 mps 754 mmHg 92%
    23:00 +18°C° 0 mm 1 mps 755 mmHg 93%
    Show more